Voltar ao catálogo

THOR ABLESTAR DEB

AtivoLEO
NORAD 350·DEBRIS·🇺🇸 United States

Lançado Jun 29, 1961 de Cape Canaveral Space Force Station

Loading…

Próximas Passagens (próximas 24 horas)

TLE

AtualizadoSource: Space-Track

Época: Sep 14, 2026, 06:23 UTC

1 00350U 61015DQ  26257.26615184  .00000144  00000-0  93901-4 0  9991
2 00350  66.9144   1.8191 0117860  80.7319 280.7084 14.22692622375629

Acompanhe THOR ABLESTAR DEB em tempo real com AllMySat

Download on the App Store